SENTINEL-3B

Last updated on Mon Sep 21 2026 00:02:41 GMT+0000 (Coordinated Universal Time)

1 43437U 18039A 26263.14552003 .00000037 00000+0 33229-4 0 9993 2 43437 98.6272 329.3035 0001255 75.1152 285.0167 14.26738280437662
UTC large
Height (km)
Speed (km/s)
/
Latitude / Longitude
Inclination (degrees)
Orbital Period (minutes)
Azimuth
Elevation
Range (km)
Doppler Factor

Next 0 passes for location: London (51.5072 / 0.1276)

No passes found over London.
SENTINEL-3B